DGRLG EDLP-EDDP

Flight info

Callsign DGRLG
Flight time N/A
Altitude 17000
Route WRB1X WRB Z190 ERSET N858 MAXOT T212 LASTO T956 GOXLI GOXLI1R
Aircraft DA42/L-BDGLORVWY/S

Departure

Time 2026-05-08 20:11
Airport Paderborn Lippstadt Airport (EDLP)

Arrival

Time N/A
Airport Leipzig/Halle Airport (EDDP)
Time Latitude Longitude Altitude Speed Heading
2026-05-08 19:53 51.61004 8.61588 725 ft 0 kts 58°
2026-05-08 20:06 51.61020 8.61616 725 ft 10 kts 18°
2026-05-08 20:06 51.61062 8.61573 724 ft 9 kts 329°
2026-05-08 20:07 51.61143 8.61480 712 ft 15 kts 274°
2026-05-08 20:07 51.61095 8.61343 712 ft 14 kts 236°
2026-05-08 20:07 51.61020 8.61166 713 ft 23 kts 236°
2026-05-08 20:07 51.61042 8.61016 712 ft 6 kts 353°
2026-05-08 20:08 51.61047 8.61016 712 ft 0 kts 358°
2026-05-08 20:10 51.61073 8.61028 710 ft 12 kts 24°
2026-05-08 20:10 51.61180 8.61106 710 ft 17 kts 28°
2026-05-08 20:10 51.61209 8.61143 710 ft 0 kts 54°
2026-05-08 20:11 51.61272 8.61296 707 ft 48 kts 56°
2026-05-08 20:11 51.61555 8.61993 730 ft 93 kts 56°
2026-05-08 20:11 51.61944 8.62900 986 ft 103 kts 59°
2026-05-08 20:11 51.62306 8.63864 1376 ft 98 kts 60°
2026-05-08 20:12 51.62678 8.64800 1710 ft 103 kts 61°
2026-05-08 20:12 51.63077 8.65781 2034 ft 106 kts 64°
2026-05-08 20:12 51.63486 8.66768 2380 ft 105 kts 62°
2026-05-08 20:12 51.63759 8.67416 2596 ft 106 kts 61°
2026-05-08 20:13 51.64104 8.68466 2942 ft 104 kts 81°
2026-05-08 20:13 51.64247 8.69580 3279 ft 104 kts 83°
2026-05-08 20:13 51.64391 8.70734 3605 ft 107 kts 81°
2026-05-08 20:13 51.64538 8.71917 3926 ft 108 kts 81°
2026-05-08 20:14 51.64687 8.73118 4273 ft 108 kts 79°
2026-05-08 20:14 51.64834 8.74294 4591 ft 110 kts 78°
2026-05-08 20:14 51.64987 8.75519 4919 ft 111 kts 77°
2026-05-08 20:14 51.65135 8.76735 5232 ft 113 kts 81°
2026-05-08 20:15 51.65002 8.77980 5558 ft 116 kts 117°
2026-05-08 20:15 51.64546 8.79086 5875 ft 118 kts 124°
2026-05-08 20:15 51.64077 8.80161 6203 ft 120 kts 125°
2026-05-08 20:15 51.63594 8.81266 6525 ft 121 kts 125°
2026-05-08 20:16 51.63108 8.82381 6844 ft 122 kts 125°
2026-05-08 20:16 51.62600 8.83548 7182 ft 122 kts 125°
2026-05-08 20:16 51.62135 8.84618 7492 ft 122 kts 126°
2026-05-08 20:16 51.61647 8.85737 7820 ft 122 kts 126°
2026-05-08 20:17 51.61158 8.86858 8146 ft 122 kts 126°
2026-05-08 20:17 51.60671 8.87978 8473 ft 122 kts 127°
2026-05-08 20:17 51.60183 8.89101 8800 ft 123 kts 127°
2026-05-08 20:17 51.59694 8.90224 9135 ft 123 kts 127°
2026-05-08 20:18 51.59195 8.91370 9469 ft 123 kts 127°
2026-05-08 20:18 51.58715 8.92472 9795 ft 123 kts 128°
2026-05-08 20:18 51.58222 8.93601 10124 ft 123 kts 128°
2026-05-08 20:18 51.57729 8.94733 10415 ft 124 kts 128°
2026-05-08 20:19 51.57230 8.95874 10710 ft 125 kts 128°
2026-05-08 20:19 51.56727 8.97027 11007 ft 127 kts 128°
2026-05-08 20:19 51.56219 8.98189 11312 ft 128 kts 128°
2026-05-08 20:19 51.55706 8.99363 11607 ft 129 kts 128°
2026-05-08 20:20 51.55188 9.00549 11915 ft 130 kts 128°
2026-05-08 20:20 51.54667 9.01740 12225 ft 131 kts 128°
2026-05-08 20:20 51.54140 9.02943 12531 ft 132 kts 127°
2026-05-08 20:20 51.53609 9.04156 12845 ft 133 kts 127°
2026-05-08 20:21 51.53073 9.05380 13156 ft 135 kts 127°
2026-05-08 20:21 51.52532 9.06614 13471 ft 136 kts 127°
2026-05-08 20:21 51.51986 9.07859 13786 ft 137 kts 127°
2026-05-08 20:21 51.51436 9.09114 14086 ft 138 kts 127°
2026-05-08 20:22 51.50881 9.10377 14372 ft 139 kts 127°
2026-05-08 20:22 51.50294 9.11607 14658 ft 139 kts 132°
2026-05-08 20:22 51.49690 9.12825 14945 ft 140 kts 130°
2026-05-08 20:22 51.49085 9.14050 15232 ft 141 kts 131°
2026-05-08 20:23 51.48470 9.15286 15518 ft 142 kts 131°
2026-05-08 20:23 51.47852 9.16522 15807 ft 143 kts 131°
2026-05-08 20:23 51.47229 9.17764 16090 ft 143 kts 131°
2026-05-08 20:23 51.46547 9.19126 16396 ft 144 kts 131°
2026-05-08 20:24 51.45974 9.20269 16647 ft 145 kts 131°
2026-05-08 20:24 51.45339 9.21534 16926 ft 146 kts 132°
2026-05-08 20:24 51.44701 9.22806 17164 ft 150 kts 132°
2026-05-08 20:24 51.44006 9.24181 17169 ft 167 kts 131°
2026-05-08 20:25 51.43248 9.25684 17168 ft 179 kts 131°
2026-05-08 20:25 51.42430 9.27249 17167 ft 186 kts 133°
2026-05-08 20:25 51.41589 9.28865 17167 ft 192 kts 131°
2026-05-08 20:25 51.40735 9.30539 17165 ft 195 kts 131°
2026-05-08 20:26 51.39862 9.32223 17165 ft 197 kts 132°
2026-05-08 20:26 51.38976 9.33915 17163 ft 199 kts 132°
2026-05-08 20:26 51.38086 9.35612 17162 ft 200 kts 132°
2026-05-08 20:26 51.37210 9.37283 17165 ft 200 kts 132°
2026-05-08 20:27 51.36299 9.39021 17161 ft 200 kts 132°
2026-05-08 20:27 51.35402 9.40730 17162 ft 201 kts 132°
2026-05-08 20:27 51.34504 9.42439 17161 ft 201 kts 132°
2026-05-08 20:27 51.33605 9.44151 17161 ft 201 kts 132°
2026-05-08 20:28 51.32708 9.45857 17159 ft 201 kts 132°
2026-05-08 20:28 51.31808 9.47569 17159 ft 201 kts 132°
2026-05-08 20:28 51.30909 9.49275 17160 ft 201 kts 132°
2026-05-08 20:28 51.30009 9.50984 17159 ft 201 kts 132°
2026-05-08 20:29 51.29111 9.52689 17162 ft 201 kts 132°
2026-05-08 20:29 51.28211 9.54395 17158 ft 201 kts 132°
2026-05-08 20:29 51.27309 9.56103 17163 ft 201 kts 132°
2026-05-08 20:29 51.26407 9.57812 17161 ft 202 kts 132°
2026-05-08 20:30 51.25501 9.59525 17163 ft 202 kts 132°
2026-05-08 20:30 51.24594 9.61241 17164 ft 203 kts 132°
2026-05-08 20:30 51.23682 9.62963 17165 ft 203 kts 132°
2026-05-08 20:30 51.22772 9.64682 17162 ft 203 kts 132°
2026-05-08 20:31 51.22021 9.66579 17150 ft 205 kts 108°
2026-05-08 20:31 51.21843 9.68833 17159 ft 205 kts 92°
2026-05-08 20:31 51.21826 9.71110 17162 ft 206 kts 90°
2026-05-08 20:31 51.21789 9.73387 17162 ft 206 kts 93°
2026-05-08 20:32 51.21688 9.75666 17165 ft 206 kts 95°
2026-05-08 20:32 51.21565 9.77939 17172 ft 206 kts 95°
2026-05-08 20:32 51.21446 9.80212 17167 ft 206 kts 95°
2026-05-08 20:32 51.21330 9.82488 17167 ft 206 kts 95°
2026-05-08 20:33 51.21214 9.84766 17168 ft 206 kts 95°
2026-05-08 20:33 51.21098 9.87049 17167 ft 207 kts 95°
2026-05-08 20:33 51.20980 9.89337 17166 ft 207 kts 95°
2026-05-08 20:33 51.20862 9.91626 17167 ft 207 kts 95°
2026-05-08 20:34 51.20743 9.93916 17171 ft 207 kts 95°
2026-05-08 20:34 51.20624 9.96207 17171 ft 207 kts 95°
2026-05-08 20:34 51.20384 10.00793 17175 ft 208 kts 95°
2026-05-08 20:35 51.20265 10.03056 17169 ft 208 kts 95°
2026-05-08 20:35 51.20144 10.05350 17169 ft 208 kts 95°
2026-05-08 20:35 51.20021 10.07656 17169 ft 209 kts 95°
2026-05-08 20:35 51.19899 10.09962 17170 ft 209 kts 95°
2026-05-08 20:36 51.19775 10.12275 17170 ft 210 kts 95°
2026-05-08 20:36 51.19651 10.14589 17170 ft 210 kts 95°
2026-05-08 20:36 51.19527 10.16904 17170 ft 210 kts 95°
2026-05-08 20:36 51.19401 10.19225 17171 ft 210 kts 95°
2026-05-08 20:37 51.19275 10.21545 17172 ft 210 kts 95°
2026-05-08 20:37 51.19149 10.23865 17170 ft 210 kts 95°
2026-05-08 20:37 51.19023 10.26184 17169 ft 210 kts 95°
2026-05-08 20:37 51.18896 10.28498 17170 ft 210 kts 95°
2026-05-08 20:38 51.18767 10.30821 17169 ft 210 kts 95°
2026-05-08 20:38 51.18640 10.33133 17175 ft 210 kts 95°
2026-05-08 20:38 51.18512 10.35450 17177 ft 210 kts 95°
2026-05-08 20:38 51.18383 10.37764 17177 ft 209 kts 95°
2026-05-08 20:39 51.18254 10.40074 17174 ft 209 kts 95°
2026-05-08 20:39 51.18125 10.42386 17175 ft 209 kts 95°
2026-05-08 20:39 51.17995 10.44696 17175 ft 209 kts 95°
2026-05-08 20:39 51.17865 10.47006 17176 ft 209 kts 95°
2026-05-08 20:40 51.17734 10.49316 17177 ft 209 kts 95°
2026-05-08 20:40 51.17603 10.51625 17178 ft 210 kts 95°
2026-05-08 20:40 51.17471 10.53942 17178 ft 210 kts 95°
2026-05-08 20:40 51.17337 10.56264 17178 ft 210 kts 95°
2026-05-08 20:41 51.17204 10.58581 17179 ft 210 kts 95°
2026-05-08 20:41 51.17070 10.60904 17181 ft 211 kts 95°
2026-05-08 20:41 51.16937 10.63224 17179 ft 211 kts 95°
2026-05-08 20:41 51.16802 10.65552 17181 ft 211 kts 95°
2026-05-08 20:42 51.16666 10.67883 17180 ft 211 kts 95°
2026-05-08 20:42 51.16530 10.70211 17182 ft 211 kts 95°
2026-05-08 20:42 51.16393 10.72535 17182 ft 211 kts 95°
2026-05-08 20:42 51.16256 10.74863 17182 ft 211 kts 95°
2026-05-08 20:43 51.16119 10.77192 17183 ft 211 kts 95°
2026-05-08 20:43 51.15982 10.79515 17183 ft 211 kts 95°
2026-05-08 20:43 51.15843 10.81839 17183 ft 211 kts 95°
2026-05-08 20:43 51.15705 10.84166 17185 ft 211 kts 95°
2026-05-08 20:44 51.15566 10.86489 17183 ft 211 kts 95°
2026-05-08 20:44 51.15426 10.88813 17183 ft 211 kts 95°
2026-05-08 20:44 51.15291 10.91056 17183 ft 211 kts 96°
2026-05-08 20:44 51.15151 10.93381 17184 ft 211 kts 96°
2026-05-08 20:45 51.15010 10.95706 17183 ft 211 kts 96°
2026-05-08 20:45 51.14916 10.97246 17183 ft 211 kts 96°
2026-05-08 20:45 51.14732 11.00360 17184 ft 211 kts 95°
2026-05-08 20:45 51.14616 11.02665 17183 ft 212 kts 95°
2026-05-08 20:46 51.14499 11.04997 17183 ft 212 kts 95°
2026-05-08 20:46 51.14377 11.07331 17183 ft 211 kts 95°